Location: Newark
(46.7000°N, 60.6000°W)
Time: 12:08:54
(UTC+00:00)

A-11 Canister half - Pass Details

Date: 31 October 2020
Orbit: 1516 x 1684 km, 47.2° (Epoch: 04 December)

Event Time Altitude Azimuth Distance (km) Brightness Sun altitude
Rises 23:20:53 0° 228° (SW) 4,927 12.2 -26.7°
Reaches altitude 10° 23:24:06 10° 225° (SW) 3,941 11.6 -27.2°
Maximum altitude 23:34:00 60° 149° (SSE) 1,866 9.1 -28.9°
Enters shadow 23:35:49 53° 111° (ESE) 1,970 9.1 -29.2°
